ANT570 CYVR-CYXY

Flight info

Callsign ANT570
Flight time 2h 10m
Altitude 36000
Route FASBO DCT TRENA DCT 55N128W DCT GOROV GOROV2
Aircraft B738/M-SDE2E3FGHIRWXY/LB1

Departure

Time 2026-05-04 13:58
Airport Vancouver International Airport (CYVR)

Arrival

Time 2026-05-04 16:08
Airport Whitehorse / Erik Nielsen International Airport (CYXY)
Time Latitude Longitude Altitude Speed Heading
2026-05-04 13:33 49.19176 -123.18417 24 ft 0 kts 18°
2026-05-04 13:45 49.19170 -123.18420 24 ft 4 kts 18°
2026-05-04 13:46 49.19145 -123.18433 23 ft 4 kts 14°
2026-05-04 13:46 49.19119 -123.18437 23 ft 4 kts 346°
2026-05-04 13:46 49.19098 -123.18420 23 ft 4 kts 292°
2026-05-04 13:46 49.19096 -123.18411 24 ft 1 kts 281°
2026-05-04 13:49 49.19096 -123.18413 24 ft 2 kts 281°
2026-05-04 13:49 49.19112 -123.18476 22 ft 7 kts 307°
2026-05-04 13:49 49.19148 -123.18525 22 ft 7 kts 324°
2026-05-04 13:50 49.19149 -123.18590 22 ft 7 kts 237°
2026-05-04 13:50 49.19133 -123.18655 22 ft 7 kts 284°
2026-05-04 13:50 49.19166 -123.18705 22 ft 7 kts 321°
2026-05-04 13:50 49.19205 -123.18736 23 ft 7 kts
2026-05-04 13:51 49.19250 -123.18727 23 ft 6 kts
2026-05-04 13:51 49.19303 -123.18707 23 ft 12 kts 14°
2026-05-04 13:51 49.19391 -123.18695 23 ft 13 kts 342°
2026-05-04 13:51 49.19474 -123.18724 24 ft 12 kts
2026-05-04 13:52 49.19613 -123.18687 22 ft 12 kts
2026-05-04 13:52 49.19719 -123.18636 23 ft 16 kts 40°
2026-05-04 13:52 49.19786 -123.18586 22 ft 16 kts
2026-05-04 13:53 49.19929 -123.18551 22 ft 15 kts
2026-05-04 13:53 49.19998 -123.18535 22 ft 15 kts
2026-05-04 13:53 49.20098 -123.18510 23 ft 14 kts 17°
2026-05-04 13:54 49.20089 -123.18211 22 ft 19 kts 99°
2026-05-04 13:54 49.20066 -123.18018 22 ft 18 kts 102°
2026-05-04 13:54 49.20024 -123.17650 22 ft 17 kts 98°
2026-05-04 13:55 49.20003 -123.17471 22 ft 19 kts 101°
2026-05-04 13:55 49.19944 -123.16948 22 ft 26 kts 99°
2026-05-04 13:55 49.19913 -123.16680 23 ft 25 kts 100°
2026-05-04 13:56 49.19884 -123.16429 23 ft 23 kts 100°
2026-05-04 13:56 49.19859 -123.16198 22 ft 10 kts 99°
2026-05-04 13:56 49.19916 -123.16068 25 ft 9 kts
2026-05-04 13:57 49.19979 -123.16052 22 ft 9 kts
2026-05-04 13:57 49.20040 -123.16045 24 ft 9 kts 342°
2026-05-04 13:58 49.20219 -123.17469 22 ft 130 kts 280°
2026-05-04 13:58 49.20613 -123.20945 819 ft 179 kts 280°
2026-05-04 13:58 49.20819 -123.22869 1498 ft 190 kts 280°
2026-05-04 13:59 49.21289 -123.24804 1987 ft 208 kts 312°
2026-05-04 13:59 49.22556 -123.26010 2229 ft 227 kts 339°
2026-05-04 13:59 49.25587 -123.28096 3098 ft 249 kts 335°
2026-05-04 14:00 49.27194 -123.29336 3441 ft 266 kts 333°
2026-05-04 14:00 49.30522 -123.32093 4973 ft 274 kts 331°
2026-05-04 14:00 49.32183 -123.33523 5820 ft 275 kts 330°
2026-05-04 14:01 49.33864 -123.34991 6569 ft 279 kts 330°
2026-05-04 14:01 49.35548 -123.36467 7383 ft 279 kts 330°
2026-05-04 14:01 49.38949 -123.39386 9010 ft 281 kts 332°
2026-05-04 14:02 49.40696 -123.40764 9815 ft 283 kts 332°
2026-05-04 14:02 49.42466 -123.42143 10449 ft 290 kts 333°
2026-05-04 14:02 49.44338 -123.43601 10647 ft 312 kts 332°
2026-05-04 14:02 49.46320 -123.45151 10815 ft 334 kts 333°
2026-05-04 14:03 49.48455 -123.46825 10973 ft 354 kts 332°
2026-05-04 14:03 49.50712 -123.48602 11166 ft 371 kts 332°
2026-05-04 14:03 49.53036 -123.50437 11619 ft 379 kts 333°
2026-05-04 14:03 49.55407 -123.52267 12191 ft 382 kts 334°
2026-05-04 14:04 49.60152 -123.55985 13513 ft 384 kts 332°
2026-05-04 14:04 49.62522 -123.57903 14101 ft 386 kts 333°
2026-05-04 14:04 49.64900 -123.59843 14666 ft 388 kts 332°
2026-05-04 14:05 49.69777 -123.63576 15514 ft 394 kts 342°
2026-05-04 14:05 49.72345 -123.64884 16050 ft 395 kts 335°
2026-05-04 14:05 49.74740 -123.67036 16595 ft 398 kts 328°
2026-05-04 14:06 49.77071 -123.69392 17079 ft 402 kts 328°
2026-05-04 14:06 49.79484 -123.71607 17585 ft 403 kts 334°
2026-05-04 14:06 49.82001 -123.73543 17981 ft 407 kts 334°
2026-05-04 14:06 49.84522 -123.75535 18467 ft 408 kts 333°
2026-05-04 14:07 49.87043 -123.77574 18897 ft 410 kts 333°
2026-05-04 14:07 49.89580 -123.79617 19332 ft 411 kts 333°
2026-05-04 14:07 49.92118 -123.81667 19780 ft 413 kts 333°
2026-05-04 14:07 49.94675 -123.83728 20194 ft 414 kts 333°
2026-05-04 14:08 49.97242 -123.85791 20532 ft 418 kts 333°
2026-05-04 14:08 49.99807 -123.87844 20914 ft 420 kts 333°
2026-05-04 14:08 50.02428 -123.89997 21318 ft 421 kts 332°
2026-05-04 14:08 50.05018 -123.92142 21639 ft 424 kts 333°
2026-05-04 14:09 50.10233 -123.96352 22457 ft 425 kts 334°
2026-05-04 14:09 50.12914 -123.98352 22799 ft 428 kts 333°
2026-05-04 14:10 50.18214 -124.02697 23435 ft 432 kts 332°
2026-05-04 14:10 50.20848 -124.04945 23837 ft 431 kts 330°
2026-05-04 14:10 50.23457 -124.07238 24224 ft 430 kts 332°
2026-05-04 14:10 50.26117 -124.09426 24469 ft 435 kts 330°
2026-05-04 14:11 50.28471 -124.12420 24753 ft 438 kts 321°
2026-05-04 14:11 50.34135 -124.15529 25243 ft 438 kts 350°
2026-05-04 14:11 50.37030 -124.16853 25497 ft 438 kts 331°
2026-05-04 14:12 50.39506 -124.19680 25698 ft 440 kts 325°
2026-05-04 14:12 50.42074 -124.22304 25922 ft 442 kts 327°
2026-05-04 14:12 50.47357 -124.27271 26396 ft 444 kts 336°
2026-05-04 14:13 50.50152 -124.29193 26750 ft 443 kts 337°
2026-05-04 14:13 50.52982 -124.31054 27170 ft 439 kts 338°
2026-05-04 14:13 50.55717 -124.33143 27632 ft 436 kts 334°
2026-05-04 14:13 50.58516 -124.34942 27992 ft 434 kts 343°
2026-05-04 14:14 50.61376 -124.36455 28306 ft 434 kts 336°
2026-05-04 14:14 50.67084 -124.39289 28796 ft 433 kts 346°
2026-05-04 14:14 50.69800 -124.41302 29121 ft 434 kts 323°
2026-05-04 14:15 50.74546 -124.47022 29955 ft 428 kts 333°
2026-05-04 14:15 50.79965 -124.50898 30496 ft 426 kts 342°
2026-05-04 14:16 50.85301 -124.54839 31242 ft 421 kts 333°
2026-05-04 14:16 50.87854 -124.57096 31512 ft 420 kts 333°
2026-05-04 14:17 50.93063 -124.61173 31944 ft 420 kts 336°
2026-05-04 14:17 50.95713 -124.63119 32277 ft 418 kts 338°
2026-05-04 14:17 51.01016 -124.66791 32802 ft 415 kts 335°
2026-05-04 14:18 51.03599 -124.68861 33053 ft 414 kts 334°
2026-05-04 14:18 51.08694 -124.73016 33627 ft 411 kts 334°
2026-05-04 14:19 51.13793 -124.77171 34111 ft 410 kts 335°
2026-05-04 14:19 51.16331 -124.79178 34386 ft 406 kts 336°
2026-05-04 14:19 51.18863 -124.81182 34580 ft 407 kts 335°
2026-05-04 14:20 51.23939 -124.85267 34887 ft 408 kts 334°
2026-05-04 14:20 51.26453 -124.87223 35157 ft 406 kts 336°
2026-05-04 14:20 51.29000 -124.89180 35332 ft 406 kts 335°
2026-05-04 14:21 51.34032 -124.93302 35708 ft 406 kts 334°
2026-05-04 14:21 51.36545 -124.95367 35895 ft 405 kts 335°
2026-05-04 14:21 51.39068 -124.97374 36029 ft 405 kts 335°
2026-05-04 14:21 51.41586 -124.99420 36035 ft 407 kts 335°
2026-05-04 14:22 51.46583 -125.03590 36047 ft 406 kts 334°
2026-05-04 14:22 51.51628 -125.07680 36065 ft 405 kts 335°
2026-05-04 14:23 51.59193 -125.13811 36037 ft 406 kts 336°
2026-05-04 14:24 51.64204 -125.17957 36073 ft 406 kts 329°
2026-05-04 14:24 51.69207 -125.21978 36075 ft 403 kts 336°
2026-05-04 14:25 51.74218 -125.26100 36081 ft 403 kts 331°
2026-05-04 14:25 51.81722 -125.32261 36066 ft 404 kts 333°
2026-05-04 14:26 51.86702 -125.36390 36048 ft 404 kts 335°
2026-05-04 14:26 51.91719 -125.40490 36068 ft 404 kts 334°
2026-05-04 14:27 51.96735 -125.44641 36078 ft 406 kts 334°
2026-05-04 14:27 52.01777 -125.48835 36090 ft 408 kts 334°
2026-05-04 14:28 52.06833 -125.53051 36083 ft 409 kts 334°
2026-05-04 14:28 52.11916 -125.57142 36077 ft 407 kts 333°
2026-05-04 14:29 52.21938 -125.65739 36085 ft 407 kts 333°
2026-05-04 14:30 52.26967 -125.70003 36091 ft 407 kts 333°
2026-05-04 14:31 52.34491 -125.76391 36073 ft 405 kts 333°
2026-05-04 14:32 52.44535 -125.84786 36091 ft 404 kts 333°
2026-05-04 14:32 52.49515 -125.89039 36100 ft 403 kts 333°
2026-05-04 14:33 52.54496 -125.93303 36082 ft 404 kts 333°
2026-05-04 14:33 52.59473 -125.97563 36081 ft 403 kts 332°
2026-05-04 14:34 52.64445 -126.01841 36093 ft 403 kts 333°
2026-05-04 14:34 52.69436 -126.06118 36101 ft 404 kts 332°
2026-05-04 14:35 52.74421 -126.10415 36095 ft 405 kts 332°
2026-05-04 14:35 52.79419 -126.14745 36107 ft 405 kts 332°
2026-05-04 14:36 52.84377 -126.19049 36109 ft 406 kts 332°
2026-05-04 14:36 52.89390 -126.23409 36101 ft 407 kts 332°
2026-05-04 14:37 52.94407 -126.27782 36105 ft 407 kts 332°
2026-05-04 14:37 52.98584 -126.31379 36108 ft 406 kts 332°
2026-05-04 14:38 53.03580 -126.35727 36109 ft 405 kts 332°
2026-05-04 14:38 53.08547 -126.40139 36093 ft 404 kts 332°
2026-05-04 14:39 53.13508 -126.44532 36103 ft 404 kts 332°
2026-05-04 14:39 53.18472 -126.48922 36099 ft 403 kts 332°
2026-05-04 14:40 53.25908 -126.55510 36088 ft 403 kts 332°
2026-05-04 14:40 53.30818 -126.59874 36100 ft 402 kts 332°
2026-05-04 14:41 53.35760 -126.64276 36111 ft 402 kts 332°
2026-05-04 14:42 53.45652 -126.73127 36106 ft 403 kts 331°
2026-05-04 14:42 53.50602 -126.77573 36102 ft 403 kts 331°
2026-05-04 14:43 53.55525 -126.82006 36105 ft 404 kts 331°
2026-05-04 14:43 53.60492 -126.86491 36107 ft 405 kts 331°
2026-05-04 14:44 53.65463 -126.90983 36131 ft 405 kts 331°
2026-05-04 14:44 53.70433 -126.95500 36119 ft 406 kts 331°
2026-05-04 14:45 53.75417 -127.00041 36117 ft 407 kts 331°
2026-05-04 14:45 53.80374 -127.04569 36122 ft 407 kts 331°
2026-05-04 14:46 53.85366 -127.09138 36127 ft 408 kts 330°
2026-05-04 14:46 53.90356 -127.13718 36126 ft 408 kts 331°
2026-05-04 14:47 53.95346 -127.18299 36142 ft 408 kts 330°
2026-05-04 14:47 54.00325 -127.22896 36134 ft 406 kts 330°
2026-05-04 14:48 54.05285 -127.27493 36134 ft 405 kts 330°
2026-05-04 14:48 54.10213 -127.32068 36127 ft 405 kts 330°
2026-05-04 14:49 54.15125 -127.36639 36126 ft 404 kts 330°
2026-05-04 14:49 54.20054 -127.41238 36129 ft 403 kts 330°
2026-05-04 14:50 54.24982 -127.45848 36129 ft 403 kts 330°
2026-05-04 14:50 54.29898 -127.50460 36119 ft 403 kts 330°
2026-05-04 14:51 54.34811 -127.55107 36124 ft 403 kts 330°
2026-05-04 14:51 54.39699 -127.59690 36123 ft 403 kts 330°
2026-05-04 14:52 54.44604 -127.64374 36126 ft 403 kts 327°
2026-05-04 14:52 54.49469 -127.69196 36121 ft 404 kts 330°
2026-05-04 14:53 54.54433 -127.73777 36104 ft 404 kts 332°
2026-05-04 14:53 54.59387 -127.78376 36116 ft 407 kts 329°
2026-05-04 14:54 54.64297 -127.83259 36124 ft 407 kts 329°
2026-05-04 14:54 54.69209 -127.88021 36103 ft 409 kts 331°
2026-05-04 14:55 54.74197 -127.92857 36123 ft 408 kts 329°
2026-05-04 14:55 54.79143 -127.97551 36120 ft 407 kts 330°
2026-05-04 14:56 54.84121 -128.02214 36122 ft 406 kts 329°
2026-05-04 14:56 54.89064 -128.06955 36138 ft 404 kts 329°
2026-05-04 14:57 54.93969 -128.11724 36147 ft 404 kts 329°
2026-05-04 14:57 54.98838 -128.16618 36149 ft 406 kts 328°
2026-05-04 14:58 55.03889 -128.21009 36138 ft 405 kts 330°
2026-05-04 14:58 55.08718 -128.26020 36127 ft 403 kts 327°
2026-05-04 14:59 55.13543 -128.30907 36135 ft 403 kts 328°
2026-05-04 15:00 55.20768 -128.38468 36144 ft 404 kts 326°
2026-05-04 15:00 55.25761 -128.43042 36151 ft 405 kts 330°
2026-05-04 15:01 55.33194 -128.50008 36142 ft 404 kts 326°
2026-05-04 15:01 55.37974 -128.55130 36136 ft 405 kts 327°
2026-05-04 15:02 55.42860 -128.60085 36144 ft 405 kts 328°
2026-05-04 15:02 55.47767 -128.65010 36159 ft 405 kts 328°
2026-05-04 15:03 55.52652 -128.69894 36143 ft 406 kts 328°
2026-05-04 15:03 55.57557 -128.74850 36148 ft 405 kts 328°
2026-05-04 15:04 55.62458 -128.79819 36155 ft 406 kts 328°
2026-05-04 15:04 55.67367 -128.84787 36150 ft 405 kts 328°
2026-05-04 15:05 55.72251 -128.89763 36165 ft 405 kts 327°
2026-05-04 15:05 55.77103 -128.94730 36164 ft 405 kts 327°
2026-05-04 15:06 55.81990 -128.99741 36163 ft 405 kts 327°
2026-05-04 15:07 55.89319 -129.07277 36170 ft 406 kts 327°
2026-05-04 15:07 55.94218 -129.12322 36193 ft 406 kts 327°
2026-05-04 15:08 55.99101 -129.17375 36181 ft 405 kts 327°
2026-05-04 15:08 56.03975 -129.22442 36172 ft 405 kts 327°
2026-05-04 15:09 56.08807 -129.27477 36174 ft 404 kts 327°
2026-05-04 15:09 56.13653 -129.32535 36182 ft 403 kts 327°
2026-05-04 15:10 56.20953 -129.39991 36185 ft 402 kts 326°
2026-05-04 15:11 56.28085 -129.48040 36183 ft 406 kts 328°
2026-05-04 15:11 56.33044 -129.52937 36179 ft 406 kts 326°
2026-05-04 15:12 56.37885 -129.58104 36175 ft 407 kts 327°
2026-05-04 15:12 56.42775 -129.63274 36211 ft 407 kts 326°
2026-05-04 15:13 56.47632 -129.68515 36204 ft 406 kts 329°
2026-05-04 15:13 56.52561 -129.73490 36200 ft 405 kts 326°
2026-05-04 15:14 56.57389 -129.78785 36216 ft 404 kts 326°
2026-05-04 15:14 56.62196 -129.84054 36192 ft 406 kts 326°
2026-05-04 15:15 56.67151 -129.88980 36211 ft 403 kts 327°
2026-05-04 15:15 56.71828 -129.94554 36219 ft 403 kts 322°
2026-05-04 15:16 56.79088 -130.02110 36208 ft 400 kts 324°
2026-05-04 15:17 56.86271 -130.10119 36170 ft 410 kts 328°
2026-05-04 15:17 56.93571 -130.18300 36200 ft 413 kts 325°
2026-05-04 15:18 56.98479 -130.23696 36234 ft 406 kts 324°
2026-05-04 15:19 57.05683 -130.31501 36209 ft 400 kts 327°
2026-05-04 15:19 57.12843 -130.39215 36185 ft 397 kts 328°
2026-05-04 15:20 57.17744 -130.43629 36185 ft 391 kts 316°
2026-05-04 15:20 57.21939 -130.50127 36248 ft 397 kts 319°
2026-05-04 15:21 57.26374 -130.56394 36199 ft 403 kts 320°
2026-05-04 15:22 57.33102 -130.65782 36220 ft 405 kts 320°
2026-05-04 15:22 57.40360 -130.73952 36208 ft 411 kts 328°
2026-05-04 15:23 57.45409 -130.78792 36209 ft 411 kts 328°
2026-05-04 15:23 57.50475 -130.83793 36202 ft 411 kts 327°
2026-05-04 15:24 57.59815 -130.92579 36210 ft 409 kts 328°
2026-05-04 15:25 57.64885 -130.97390 36213 ft 406 kts 324°
2026-05-04 15:26 57.71934 -131.05988 36225 ft 402 kts 322°
2026-05-04 15:26 57.78959 -131.14608 36229 ft 404 kts 323°
2026-05-04 15:27 57.86165 -131.22695 36227 ft 404 kts 320°
2026-05-04 15:28 57.86556 -131.23219 36222 ft 404 kts 320°
2026-05-04 15:29 57.92538 -131.30581 36247 ft 408 kts 323°
2026-05-04 15:30 58.06989 -131.47496 36231 ft 405 kts 323°
2026-05-04 15:31 58.13585 -131.55304 36237 ft 403 kts 323°
2026-05-04 15:32 58.25391 -131.69378 36242 ft 399 kts 323°
2026-05-04 15:34 58.37129 -131.83521 36251 ft 402 kts 322°
2026-05-04 15:34 58.44228 -131.92112 36243 ft 405 kts 322°
2026-05-04 15:35 58.51356 -132.00778 36259 ft 407 kts 322°
2026-05-04 15:36 58.58520 -132.09571 36268 ft 408 kts 322°
2026-05-04 15:36 58.63314 -132.15445 36269 ft 409 kts 322°
2026-05-04 15:37 58.68161 -132.21171 36276 ft 408 kts 322°
2026-05-04 15:37 58.72914 -132.27123 36285 ft 407 kts 321°
2026-05-04 15:38 58.77654 -132.33045 36273 ft 406 kts 321°
2026-05-04 15:38 58.82375 -132.39069 36270 ft 406 kts 320°
2026-05-04 15:39 58.87100 -132.45144 36289 ft 410 kts 322°
2026-05-04 15:40 58.94299 -132.53949 36283 ft 410 kts 321°
2026-05-04 15:40 58.99106 -132.59846 36287 ft 407 kts 322°
2026-05-04 15:41 59.03832 -132.65832 36293 ft 405 kts 321°
2026-05-04 15:41 59.08568 -132.71785 36316 ft 404 kts 322°
2026-05-04 15:42 59.13266 -132.77748 36305 ft 402 kts 320°
2026-05-04 15:42 59.17895 -132.83845 36312 ft 402 kts 319°
2026-05-04 15:43 59.22586 -132.89841 36313 ft 403 kts 321°
2026-05-04 15:43 59.27247 -132.95774 36299 ft 403 kts 321°
2026-05-04 15:44 59.31923 -133.01844 36308 ft 402 kts 319°
2026-05-04 15:44 59.36488 -133.08202 36305 ft 403 kts 318°
2026-05-04 15:45 59.41031 -133.14653 36306 ft 403 kts 318°
2026-05-04 15:45 59.45562 -133.21080 35971 ft 410 kts 318°
2026-05-04 15:45 59.47880 -133.24364 35493 ft 407 kts 318°
2026-05-04 15:46 59.50191 -133.27634 34801 ft 407 kts 319°
2026-05-04 15:46 59.52493 -133.30897 34147 ft 407 kts 319°
2026-05-04 15:46 59.54797 -133.34166 33394 ft 408 kts 319°
2026-05-04 15:46 59.57100 -133.37442 32684 ft 408 kts 319°
2026-05-04 15:47 59.59407 -133.40734 31947 ft 409 kts 319°
2026-05-04 15:47 59.61720 -133.44029 31224 ft 410 kts 319°
2026-05-04 15:47 59.64006 -133.47295 30491 ft 411 kts 319°
2026-05-04 15:47 59.66330 -133.50625 29662 ft 413 kts 319°
2026-05-04 15:48 59.68637 -133.53932 29134 ft 407 kts 319°
2026-05-04 15:48 59.70922 -133.57225 28564 ft 403 kts 319°
2026-05-04 15:48 59.75408 -133.63675 27481 ft 394 kts 319°
2026-05-04 15:49 59.77620 -133.66863 26934 ft 391 kts 319°
2026-05-04 15:49 59.79805 -133.70021 26413 ft 387 kts 319°
2026-05-04 15:49 59.81976 -133.73166 25895 ft 384 kts 319°
2026-05-04 15:49 59.84126 -133.76288 25390 ft 382 kts 319°
2026-05-04 15:50 59.86272 -133.79409 24872 ft 381 kts 319°
2026-05-04 15:50 59.88406 -133.82517 24366 ft 379 kts 319°
2026-05-04 15:50 59.90546 -133.85641 23842 ft 385 kts 319°
2026-05-04 15:50 59.92735 -133.88806 23216 ft 392 kts 321°
2026-05-04 15:51 59.94981 -133.91841 22705 ft 386 kts 321°
2026-05-04 15:51 59.97113 -133.95035 22149 ft 381 kts 317°
2026-05-04 15:51 59.99174 -133.98317 21643 ft 377 kts 318°
2026-05-04 15:51 60.01259 -134.01458 21142 ft 373 kts 320°
2026-05-04 15:52 60.03348 -134.04522 20638 ft 370 kts 320°
2026-05-04 15:52 60.05420 -134.07546 20156 ft 367 kts 320°
2026-05-04 15:52 60.07453 -134.10520 19668 ft 365 kts 320°
2026-05-04 15:52 60.09494 -134.13520 19205 ft 362 kts 320°
2026-05-04 15:53 60.11509 -134.16535 18718 ft 360 kts 320°
2026-05-04 15:53 60.13520 -134.19532 18199 ft 359 kts 320°
2026-05-04 15:53 60.15528 -134.22494 17669 ft 357 kts 320°
2026-05-04 15:53 60.17517 -134.25458 17179 ft 355 kts 320°
2026-05-04 15:54 60.19503 -134.28412 16577 ft 356 kts 320°
2026-05-04 15:54 60.21492 -134.31367 16046 ft 355 kts 321°
2026-05-04 15:54 60.23477 -134.34328 15544 ft 353 kts 321°
2026-05-04 15:54 60.25445 -134.37273 15062 ft 352 kts 321°
2026-05-04 15:55 60.27405 -134.40215 14589 ft 350 kts 321°
2026-05-04 15:55 60.29356 -134.43147 14127 ft 348 kts 321°
2026-05-04 15:55 60.31294 -134.46064 13628 ft 347 kts 321°
2026-05-04 15:55 60.33214 -134.48959 13368 ft 342 kts 321°
2026-05-04 15:56 60.35112 -134.51827 13119 ft 350 kts 321°
2026-05-04 15:56 60.37062 -134.54775 12680 ft 348 kts 321°
2026-05-04 15:56 60.38994 -134.57698 12191 ft 346 kts 321°
2026-05-04 15:56 60.40917 -134.60614 11710 ft 344 kts 321°
2026-05-04 15:57 60.42835 -134.63488 11220 ft 343 kts 324°
2026-05-04 15:57 60.44969 -134.65577 10944 ft 338 kts 338°
2026-05-04 15:57 60.47157 -134.67153 10741 ft 328 kts 338°
2026-05-04 15:57 60.49276 -134.68664 10598 ft 317 kts 338°
2026-05-04 15:58 60.51325 -134.70150 10467 ft 307 kts 338°
2026-05-04 15:58 60.53304 -134.71610 10333 ft 298 kts 338°
2026-05-04 15:58 60.55225 -134.73044 10203 ft 290 kts 337°
2026-05-04 15:58 60.57090 -134.74447 10076 ft 281 kts 337°
2026-05-04 15:59 60.58897 -134.75812 9917 ft 274 kts 337°
2026-05-04 15:59 60.60662 -134.77149 9611 ft 273 kts 337°
2026-05-04 15:59 60.62437 -134.78497 9340 ft 271 kts 338°
2026-05-04 15:59 60.64202 -134.79837 9059 ft 270 kts 338°
2026-05-04 16:00 60.65953 -134.81169 8795 ft 268 kts 338°
2026-05-04 16:00 60.67670 -134.82475 8694 ft 259 kts 338°
2026-05-04 16:00 60.69341 -134.83747 8577 ft 252 kts 338°
2026-05-04 16:00 60.70964 -134.84985 8458 ft 245 kts 338°
2026-05-04 16:01 60.72539 -134.86188 8348 ft 238 kts 338°
2026-05-04 16:01 60.74067 -134.87355 8230 ft 231 kts 338°
2026-05-04 16:01 60.75567 -134.88504 7976 ft 228 kts 338°
2026-05-04 16:01 60.77034 -134.89629 7702 ft 223 kts 338°
2026-05-04 16:02 60.78471 -134.90732 7417 ft 219 kts 338°
2026-05-04 16:02 60.79883 -134.91817 7135 ft 215 kts 338°
2026-05-04 16:02 60.82599 -134.93918 6611 ft 205 kts 336°
2026-05-04 16:03 60.83839 -134.95350 6315 ft 200 kts 319°
2026-05-04 16:03 60.84751 -134.97379 6052 ft 193 kts 302°
2026-05-04 16:03 60.85374 -134.99768 5812 ft 188 kts 289°
2026-05-04 16:03 60.85676 -135.02346 5538 ft 185 kts 272°
2026-05-04 16:04 60.85624 -135.04978 5329 ft 185 kts 257°
2026-05-04 16:04 60.84580 -135.09727 4859 ft 183 kts 229°
2026-05-04 16:04 60.83684 -135.11514 4617 ft 180 kts 214°
2026-05-04 16:05 60.82605 -135.12776 4394 ft 178 kts 200°
2026-05-04 16:05 60.81417 -135.13446 4166 ft 176 kts 186°
2026-05-04 16:05 60.79072 -135.13025 3723 ft 163 kts 162°
2026-05-04 16:06 60.78049 -135.12239 3497 ft 148 kts 159°
2026-05-04 16:06 60.75540 -135.10278 3005 ft 142 kts 159°
2026-05-04 16:07 60.74285 -135.09325 2816 ft 145 kts 159°
2026-05-04 16:07 60.71584 -135.07218 2294 ft 126 kts 159°
2026-05-04 16:08 60.70964 -135.06739 2298 ft 56 kts 159°
2026-05-04 16:08 60.70430 -135.06326 2304 ft 21 kts 160°
2026-05-04 16:09 60.70169 -135.06122 2324 ft 13 kts 159°
2026-05-04 16:09 60.70150 -135.06336 2324 ft 12 kts 308°
2026-05-04 16:10 60.70305 -135.06592 2318 ft 16 kts 340°
2026-05-04 16:11 60.70632 -135.06844 2314 ft 14 kts 339°
2026-05-04 16:11 60.70717 -135.06911 2314 ft 13 kts 339°
2026-05-04 16:12 60.70970 -135.07105 2306 ft 19 kts 340°
2026-05-04 16:12 60.71221 -135.07248 2289 ft 10 kts 357°
2026-05-04 16:13 60.71347 -135.07308 2291 ft 9 kts 338°
2026-05-04 16:13 60.71460 -135.07402 2300 ft 9 kts 341°
2026-05-04 16:14 60.71560 -135.07494 2288 ft 7 kts 288°
2026-05-04 16:14 60.71529 -135.07609 2285 ft 2 kts 237°
2026-05-04 16:15 60.71524 -135.07625 2292 ft 0 kts 238°